MDT,Max TemperatureF,Mean TemperatureF,Min TemperatureF,Max Dew PointF,MeanDew PointF,Min DewpointF,Max Humidity, Mean Humidity, Min Humidity, Max Sea Level PressureIn, Mean Sea Level PressureIn, Min Sea Level PressureIn, Max VisibilityMiles, Mean VisibilityMiles, Min VisibilityMiles, Max Wind SpeedMPH, Mean Wind SpeedMPH, Max Gust SpeedMPH,PrecipitationIn, CloudCover, Events, WindDirDegrees
2013-10-1,74,57,40,40,30,22,79,47,15,29.99,29.91,29.80,10,10,10,13,8,16,0.00,0,,222
2013-10-2,73,60,46,42,37,35,80,54,27,29.96,29.88,29.78,10,10,10,29,13,38,0.00,0,,21
2013-10-3,52,48,44,47,43,39,92,79,66,30.01,29.95,29.88,10,8,2,28,16,33,0.48,8,Rain,38
2013-10-4,45,38,33,43,36,30,96,93,89,30.02,29.91,29.82,10,4,1,33,26,46,1.23,8,Rain-Snow-Thunderstorm,1
2013-10-5,33,33,33,,,,,,,29.86,29.84,29.81,2,1,1,40,35,51,0.10,8,Snow,317
2013-10-6,53,46,39,38,36,34,79,68,54,30.12,30.10,30.04,10,10,10,14,10,,0.00,0,,269
2013-10-7,74,56,37,45,39,33,85,57,29,30.05,29.90,29.68,10,10,10,15,9,18,0.00,0,,231
2013-10-8,66,53,40,43,39,37,86,63,40,29.82,29.70,29.60,10,10,10,14,7,18,0.00,0,,280
2013-10-9,68,53,38,42,38,35,86,58,30,29.99,29.93,29.83,10,10,10,21,11,26,0.00,1,,3
2013-10-10,67,53,39,52,45,36,92,70,48,29.88,29.70,29.50,10,10,8,23,6,29,0.22,2,Rain-Thunderstorm,325
2013-10-11,57,51,44,53,45,33,93,74,54,29.92,29.51,29.26,10,10,6,38,15,47,0.18,4,Rain,323
2013-10-12,59,48,36,35,31,26,79,55,30,30.26,30.14,29.95,10,10,10,23,10,28,0.00,0,,306
2013-10-13,69,54,38,39,36,33,79,57,34,30.30,30.18,30.03,10,10,10,23,10,28,0.03,6,Rain,113
2013-10-14,55,46,36,45,43,34,93,72,50,30.02,29.87,29.77,10,7,2,30,16,38,1.54,8,Rain-Thunderstorm,34
2013-10-15,44,38,32,42,35,31,100,90,79,30.25,30.15,30.01,10,10,6,28,15,38,0.06,7,Rain,318
2013-10-16,57,43,29,35,30,27,92,61,30,30.18,30.04,29.93,10,10,10,15,8,20,0.00,0,,265
2013-10-17,45,37,29,36,30,23,85,63,41,30.15,30.08,29.94,10,10,10,28,14,35,0.00,5,,313
2013-10-18,49,39,29,34,29,25,85,64,42,30.16,30.09,29.95,10,10,10,22,9,28,0.01,7,Rain,291
2013-10-19,64,52,40,39,34,30,73,52,31,29.91,29.81,29.72,10,10,10,20,11,25,0.00,5,,277
2013-10-20,54,43,32,37,32,24,76,58,39,30.09,29.91,29.70,10,10,10,30,13,38,T,4,,319
2013-10-21,53,42,30,44,37,28,92,79,66,30.08,29.99,29.92,10,10,10,23,7,31,0.02,5,Rain,286
2013-10-22,54,47,39,43,37,34,89,70,50,30.12,30.06,29.97,10,10,10,20,7,25,T,6,,353
2013-10-23,51,42,34,37,35,28,92,79,65,30.34,30.17,30.00,10,10,10,18,6,23,0.00,7,,13
2013-10-24,51,38,24,30,27,21,88,66,44,30.41,30.35,30.28,10,10,10,8,3,14,0.00,0,,349
2013-10-25,70,48,26,42,34,24,92,60,28,30.25,30.10,29.97,10,10,10,15,7,20,0.00,0,,292
2013-10-26,58,43,28,33,27,24,85,57,28,30.32,30.19,29.97,10,10,10,10,4,15,0.00,0,,278
2013-10-27,65,49,32,37,33,27,82,58,34,30.19,29.93,29.82,10,10,9,28,13,35,T,0,Snow,8
2013-10-28,34,32,29,28,27,24,92,82,72,30.42,30.31,30.23,10,7,0,25,15,30,0.28,8,Fog-Snow,67
2013-10-29,30,29,28,29,27,26,92,89,85,30.33,30.18,30.05,10,6,0,17,5,20,0.00,8,Fog,67
2013-10-30,37,34,30,32,30,27,100,91,82,30.05,29.90,29.76,10,8,2,12,4,14,T,8,Rain,210
2013-10-31,53,42,31,38,33,29,92,70,48,29.74,29.67,29.62,10,10,10,31,14,39,T,4,Rain,289